Погода в Буде

Великобритания     50°49′25″N   4°32′22″W
темп.,
°C
ветер,
м/с
пор.,
м/с
влажн.,
%
обл.,
%
осадки,
мм/ч
давл.,
гПа
погр.,
м
14 апреля, ср
ср1401:00+2вюв11913 0.0 103320
04:00+2вюв11865 0.0 103221
07:00+2вюв22865 0.0 103326
10:00+8в22775 0.0 1033390
13:00+10с227164 0.5 1032876
16:00+9св138083 1.8 1032453
19:00+8ююв238818 2.9 1032131
22:00+4в11915 0.1 103325
15 апреля, чт
чт1501:00+3вюв23916 0.1 103333
04:00+2вюв33864 0.0 103350
07:00+1в34845 0.0 103454
10:00+6в46745 0.0 1034509
13:00+9всв456290 0.1 10331555
16:00+10св445317 0.1 10321526
19:00+8св35715 0.1 1031170
22:00+2всв23850 0.0 103238
16 апреля, пт
пт1601:00+1всв34895 0.0 103258
04:000в23880 0.0 103236
07:000вюв34920 0.0 103264
10:00+6в34616 0.0 1032602
13:00+9вюв23505 0.0 10311288
16:00+10зсз225677 0.0 10301245
19:00+7зсз347591 0.1 1030329
22:00+6з227177 0.0 103187
17 апреля, сб
сб1701:00+4зсз11758 0.0 103046
04:00+2юв1183100 0.0 103020
07:00+2юв2281100 0.0 102931
10:00+8ю2366100 0.0 1029493
13:00+10ююз2360100 0.0 10281139
16:00+11зюз3363100 0.0 10271092
19:00+8ююз3578100 0.0 1027314
22:00+4ю339088 0.0 102860
18 апреля, вс
вс1801:00+4ююв3589100 0.0 1027127
04:00+4ююв3590100 0.0 102696
07:00+4ююв3689100 0.0 1026129
10:00+9ю576997 0.0 1025588
13:00+10ю566396 0.0 1024775
16:00+10ю566696 0.0 1023761
19:00+9ю4774100 0.0 1023432
22:00+7ююв5979100 0.0 1023344